Wind_Speed
41 42 45 48 48 51 53 56 57 54 55 60 61 59 60 61 64 57 44 35 29 25 27 22 21 23 24 23 27 31 35 37 37 42 42 40 46 51 54 56 55 56 53 52 55 53 51
37 40 43 45 48 50 51 53 57 58 60 57 61 61 62 65 66 58 56 51 35 29 29 23 21 21 21 26 28 32 33 34 38 39 40 42 49 51 55 56 59 59 56 52 56 52 46
35 37 39 42 45 47 50 53 54 57 57 60 59 59 64 64 65 67 61 57 46 37 30 27 23 19 24 25 27 30 33 34 38 42 44 47 47 51 59 58 59 61 59 55 58 56 47
30 33 37 38 42 44 46 50 53 53 56 57 59 61 60 62 67 67 64 63 58 50 43 40 35 29 27 29 30 30 32 35 38 44 47 51 51 54 59 64 63 66 67 61 57 55 51
24 26 30 35 37 41 44 47 51 53 54 54 59 60 62 62 65 67 65 64 63 61 55 51 47 44 38 35 35 36 36 36 39 44 51 54 55 55 55 61 65 69 67 63 58 54 52
22 24 26 30 33 38 41 44 47 50 52 52 55 60 61 62 63 66 69 68 64 63 62 59 54 54 52 55 52 47 43 40 38 44 49 53 55 56 57 58 62 65 64 63 58 55 49
21 23 26 29 34 35 41 42 41 46 50 54 54 56 60 65 65 65 67 71 70 67 63 62 60 60 56 61 56 58 56 55 47 44 45 51 55 57 56 57 61 63 63 66 62 57 48
24 23 29 31 34 35 36 39 43 42 47 51 54 55 55 60 63 63 64 67 71 71 69 63 62 62 62 65 61 60 68 63 56 48 48 47 49 54 53 55 57 60 64 68 65 59 47
24 26 28 32 35 38 39 39 39 43 44 48 50 55 56 55 56 63 61 61 62 67 68 68 64 60 65 65 62 62 64 64 67 58 48 44 42 48 50 50 57 58 61 63 63 59 53
24 26 29 33 36 37 37 40 42 43 46 44 47 49 55 56 55 56 60 62 61 62 64 68 65 60 63 68 67 65 65 66 69 69 55 39 41 42 46 45 51 52 56 60 61 60 61
26 27 30 33 35 37 38 38 40 41 43 45 42 46 53 57 58 56 56 56 59 60 61 66 68 64 61 66 70 68 66 68 70 65 61 48 36 40 41 42 44 46 51 56 58 59 60
28 30 31 32 34 36 37 37 39 40 40 43 46 46 51 57 58 60 60 63 58 60 58 59 64 68 68 66 71 68 69 71 71 68 66 55 43 35 38 38 39 42 47 51 54 54 54
31 31 32 30 33 36 37 38 38 37 40 46 45 45 48 53 59 61 58 62 64 63 60 59 61 63 69 72 71 66 68 70 69 69 71 63 46 37 39 38 38 41 45 49 50 46 50
34 34 33 34 35 37 39 39 41 39 44 49 49 46 47 49 55 63 60 60 63 64 61 62 64 64 65 66 70 69 65 70 68 68 73 69 52 44 33 31 29 37 41 43 45 37 39
35 36 35 37 39 40 41 43 43 43 46 49 49 49 52 54 53 61 56 59 63 65 62 61 62 64 63 66 71 71 67 68 67 67 70 71 59 48 39 32 28 31 37 40 40 32 28
37 37 38 40 41 40 42 45 47 47 48 48 49 49 53 54 58 60 55 53 61 68 64 61 60 64 62 63 70 72 68 69 70 68 69 70 63 53 44 36 29 29 33 33 35 29 25
41 41 44 44 46 46 47 47 48 49 48 47 48 49 55 55 56 59 56 55 62 65 63 59 60 61 59 63 68 74 72 69 71 70 70 69 67 61 51 40 32 31 29 28 27 27 24
48 48 48 49 50 50 51 48 50 47 49 49 52 51 55 59 57 61 60 60 59 65 63 60 58 64 59 59 66 77 72 67 72 71 71 66 65 63 57 50 37 33 30 31 25 27 25
55 54 55 54 54 56 56 55 54 50 51 54 53 53 55 59 57 59 58 60 59 69 61 60 60 65 60 60 67 75 73 71 69 71 69 65 67 65 62 55 42 35 29 29 28 32 33
58 58 58 57 57 58 59 59 55 56 54 56 59 56 61 61 60 62 59 59 64 68 60 56 64 65 58 65 69 74 77 71 69 71 71 69 67 67 65 63 57 47 30 25 28 31 33
61 62 63 61 61 62 58 60 59 61 60 57 60 63 63 64 62 61 62 64 65 65 60 58 66 69 65 69 71 75 80 76 73 73 70 71 70 69 70 67 62 53 44 37 30 25 26
64 63 61 59 61 62 61 60 62 61 62 60 61 65 60 62 62 65 67 63 69 63 59 61 70 69 69 68 71 78 82 79 81 75 71 73 75 69 70 69 65 63 51 43 38 39 38
67 66 65 63 64 62 62 61 64 64 65 64 66 64 63 66 64 67 68 66 68 62 63 68 71 72 73 72 74 80 83 82 81 73 76 78 78 71 69 72 69 68 66 57 49 45 44
67 69 68 68 67 66 68 66 67 70 72 70 73 71 67 67 67 67 70 67 61 66 69 74 73 73 77 78 81 83 83 85 81 78 81 82 83 75 70 72 74 75 70 69 61 54 51
71 71 68 68 72 74 72 73 75 75 75 75 76 77 74 67 72 73 73 64 68 75 75 78 78 76 78 82 83 84 86 85 85 85 86 88 83 79 75 75 77 78 76 74 72 65 61
77 75 74 79 78 78 82 81 78 80 79 77 78 79 76 75 74 75 69 70 69 75 78 80 79 81 82 87 87 85 89 90 90 87 90 91 85 84 82 81 81 83 85 81 78 70 69
84 83 81 81 85 84 85 83 84 82 83 81 82 84 86 85 81 77 71 73 77 79 75 80 84 85 88 90 90 89 91 92 92 94 94 90 87 86 88 87 88 90 92 92 91 83 77
92 89 87 88 87 86 87 88 88 85 82 81 83 85 89 92 89 82 76 81 82 83 83 85 86 89 92 93 92 91 90 90 93 94 93 91 90 89 88 91 94 97 98 93 93 91 89
98 95 93 95 93 89 92 91 90 85 86 88 93 95 95 95 94 86 85 84 81 87 86 89 89 89 92 95 94 93 93 94 95 94 93 93 92 91 92 96 101 103 98 95 98 101 99
Wind_Direction
42 39 38 37 38 38 38 37 37 35 37 34 35 37 37 33 27 26 21 8 348 334 339 332 322 316 318 309 309 309 309 315 315 315 318 324 329 329 333 333 332 332 330 326 321 318 312
34 34 32 33 33 32 33 34 34 33 32 32 34 34 33 32 30 28 24 20 5 350 348 343 342 340 326 319 317 316 317 316 317 319 323 329 330 330 334 336 337 337 336 334 329 325 320
28 27 27 25 26 27 26 29 30 28 29 31 30 32 32 33 30 27 27 25 26 18 7 5 354 328 326 327 323 321 322 320 321 324 327 332 335 335 334 336 339 339 343 340 338 334 329
22 23 20 19 21 22 21 21 24 26 24 26 27 29 29 29 29 29 28 28 30 32 27 22 14 355 347 338 331 327 325 323 326 328 330 333 340 337 339 338 342 344 347 347 345 339 336
21 17 12 14 13 16 18 17 17 19 22 23 22 22 25 26 28 28 27 27 27 30 28 25 20 13 3 357 347 342 330 325 327 328 329 332 337 341 340 342 344 346 344 349 347 346 341
8 13 11 8 8 10 12 13 10 13 18 19 20 18 17 22 22 24 26 24 26 24 22 21 19 17 18 13 5 356 342 329 325 327 329 331 333 338 340 342 340 343 344 350 353 352 347
357 356 2 3 1 3 6 7 10 8 7 14 18 19 15 13 18 18 20 22 21 20 17 16 12 12 13 11 10 5 357 347 331 325 327 329 330 333 339 343 343 344 347 352 355 357 356
349 349 350 354 358 357 356 357 5 6 5 2 5 12 14 11 10 14 14 15 17 17 14 12 10 8 7 4 7 9 3 1 346 328 323 329 329 334 339 343 345 347 350 352 354 0 2
335 342 339 341 349 351 351 353 358 357 3 1 358 356 6 8 8 9 10 12 11 13 12 9 7 6 4 4 3 0 2 1 1 348 328 323 326 333 339 345 347 350 352 352 354 1 6
327 331 335 335 338 343 346 347 351 356 358 0 354 352 352 358 359 4 8 6 7 8 9 11 5 2 3 4 3 0 358 359 359 358 343 331 325 334 339 343 347 350 353 353 355 2 6
319 325 329 331 335 334 339 341 345 347 353 357 359 356 352 352 350 354 358 4 3 1 2 4 7 4 360 359 1 0 360 358 358 3 357 348 334 334 339 342 344 348 352 356 359 358 5
318 323 326 327 328 326 330 336 340 341 346 348 353 351 350 347 348 347 350 353 360 1 357 354 358 4 1 359 357 359 1 0 357 3 6 357 341 331 332 338 344 348 350 354 1 357 7
314 314 317 323 326 323 326 333 335 333 337 340 345 346 345 348 347 342 343 346 352 356 356 353 353 357 0 360 355 358 0 360 358 358 2 5 351 333 330 338 342 346 351 352 358 2 358
304 309 311 314 319 323 324 326 332 324 330 334 337 343 340 338 343 341 337 339 346 348 352 351 348 352 354 356 355 357 0 360 357 356 359 3 360 346 338 333 339 336 343 344 354 2 359
299 303 304 309 316 316 318 320 326 324 326 329 331 333 334 339 337 338 334 336 341 346 346 346 346 347 348 351 354 356 357 358 357 355 356 360 1 357 347 333 335 335 335 341 348 1 10
299 301 300 304 308 312 315 317 318 319 321 323 327 328 334 333 331 334 333 329 335 337 344 341 343 344 343 347 349 355 354 355 358 354 355 358 360 360 356 348 334 328 327 336 339 351 7
294 296 299 302 304 306 312 313 314 316 318 319 321 328 327 329 328 332 332 325 327 335 339 340 342 340 338 343 343 352 351 351 354 356 354 355 359 359 355 358 342 324 318 323 323 330 341
292 294 296 298 300 302 308 309 312 312 311 316 321 323 322 321 325 327 327 323 325 329 335 339 336 337 335 337 341 345 350 349 350 353 353 353 354 358 356 352 351 332 321 319 314 317 324
289 293 295 297 298 301 306 308 310 310 308 311 316 317 315 321 326 326 325 319 321 326 334 333 332 335 330 331 337 340 345 346 345 348 350 348 350 352 354 353 345 353 330 315 309 306 309
288 291 293 295 297 301 304 308 307 308 305 308 313 312 314 319 323 326 324 319 320 326 331 330 329 331 329 329 333 335 338 342 341 344 345 345 346 348 349 352 349 343 343 337 314 307 306
286 289 292 293 295 298 303 306 306 307 309 305 308 312 316 321 320 320 322 318 315 324 327 323 327 328 327 327 329 332 333 337 339 340 340 343 341 341 346 345 347 345 337 333 328 308 299
284 288 289 291 295 298 301 302 306 309 310 303 303 307 314 316 312 316 318 317 317 320 321 320 323 323 323 323 323 327 329 333 333 335 334 336 338 335 338 342 345 342 338 330 329 333 324
281 284 288 291 296 298 300 302 304 307 308 308 307 308 311 313 311 309 316 312 316 315 317 316 318 319 321 321 322 322 326 327 328 330 328 331 332 333 331 336 339 339 338 333 329 327 326
281 279 284 288 292 295 299 299 305 306 305 305 306 308 308 308 307 307 311 315 313 313 310 314 315 317 317 319 318 321 322 323 324 324 325 327 329 330 328 329 333 335 333 332 326 323 320
283 282 284 286 287 289 292 294 296 300 303 302 304 308 308 306 306 307 312 311 307 309 307 310 313 314 313 316 316 319 319 321 321 321 322 324 326 327 325 325 326 332 332 330 328 324 316
282 282 285 287 287 291 291 293 293 295 300 301 304 304 303 302 303 308 306 309 301 305 307 307 307 308 308 310 314 315 315 317 319 319 320 323 323 325 323 324 324 327 328 327 324 321 318
282 280 282 286 287 287 288 291 291 293 296 297 300 304 303 303 302 304 298 300 300 304 301 301 303 304 304 307 310 312 313 314 316 316 317 319 320 321 322 322 322 323 324 323 325 322 316
277 279 278 279 284 286 288 290 290 291 292 294 298 301 303 302 300 300 299 301 300 302 302 299 299 299 301 303 306 309 310 311 312 314 315 317 318 317 318 319 320 321 321 321 321 318 313
278 278 279 278 283 283 288 289 290 288 290 293 295 297 298 299 297 296 297 299 292 294 297 299 297 298 299 302 304 305 306 309 310 312 314 316 315 316 316 318 320 322 319 318 317 316 312
Height
10813 10810 10807 10804 10800 10797 10792 10786 10781 10776 10770 10764 10757 10749 10742 10735 10728 10719 10713 10708 10703 10700 10697 10694 10693 10691 10690 10688 10686 10682 10678 10673 10667 10661 10653 10645 10636 10625 10614 10602 10589 10575 10562 10549 10534 10521 10505
10815 10812 10809 10805 10801 10797 10794 10789 10782 10777 10771 10766 10759 10752 10745 10737 10731 10723 10716 10708 10701 10698 10695 10691 10689 10688 10686 10684 10680 10677 10672 10667 10661 10653 10646 10638 10628 10615 10605 10594 10579 10565 10550 10538 10519 10505 10491
10817 10813 10810 10806 10803 10799 10794 10789 10784 10779 10773 10768 10762 10755 10748 10741 10733 10727 10719 10711 10703 10697 10694 10690 10687 10686 10684 10681 10677 10671 10666 10660 10654 10646 10638 10630 10620 10608 10595 10585 10572 10556 10541 10524 10507 10491 10477
10817 10814 10811 10807 10804 10800 10795 10791 10786 10781 10775 10769 10765 10758 10751 10744 10737 10730 10724 10715 10707 10699 10695 10692 10687 10684 10681 10677 10673 10667 10661 10655 10648 10639 10630 10621 10614 10602 10588 10572 10560 10542 10529 10515 10502 10484 10468
10817 10815 10812 10808 10805 10801 10796 10792 10787 10782 10777 10771 10764 10758 10753 10746 10740 10733 10726 10719 10710 10702 10698 10694 10689 10684 10680 10674 10669 10662 10656 10649 10642 10633 10623 10614 10605 10597 10584 10570 10552 10538 10527 10510 10494 10480 10462
10816 10814 10812 10808 10805 10801 10798 10793 10788 10784 10779 10773 10766 10759 10753 10748 10741 10734 10727 10721 10713 10705 10700 10696 10692 10685 10678 10672 10664 10657 10649 10642 10634 10626 10616 10607 10597 10588 10578 10566 10554 10541 10525 10508 10491 10474 10459
10816 10813 10810 10806 10803 10800 10797 10793 10789 10783 10777 10773 10768 10762 10754 10747 10741 10735 10728 10720 10714 10708 10701 10695 10690 10684 10677 10670 10661 10654 10645 10635 10625 10618 10610 10601 10591 10582 10573 10562 10548 10534 10520 10504 10489 10473 10458
10814 10811 10808 10805 10802 10799 10795 10791 10787 10783 10777 10772 10767 10763 10757 10749 10743 10736 10729 10721 10713 10707 10700 10695 10689 10682 10675 10666 10659 10650 10642 10631 10620 10611 10602 10595 10585 10576 10567 10556 10545 10531 10515 10500 10487 10473 10460
10812 10809 10806 10803 10800 10797 10794 10790 10786 10781 10776 10770 10765 10760 10756 10752 10746 10738 10731 10725 10717 10710 10703 10696 10689 10683 10676 10667 10658 10649 10639 10629 10618 10605 10595 10587 10580 10573 10564 10553 10540 10529 10518 10506 10493 10477 10462
10809 10807 10804 10801 10798 10796 10793 10788 10784 10780 10774 10770 10764 10759 10754 10751 10746 10741 10734 10725 10718 10711 10705 10697 10691 10683 10675 10667 10658 10648 10636 10626 10616 10602 10588 10582 10574 10567 10560 10553 10542 10532 10521 10508 10495 10478 10466
10807 10805 10802 10798 10795 10792 10790 10786 10782 10777 10773 10769 10764 10759 10752 10747 10742 10738 10734 10728 10720 10711 10706 10697 10691 10683 10675 10667 10657 10647 10635 10621 10611 10600 10585 10574 10569 10563 10558 10551 10543 10533 10524 10513 10500 10487 10475
10804 10801 10799 10796 10792 10790 10787 10783 10779 10775 10770 10767 10763 10758 10752 10745 10739 10734 10728 10722 10719 10711 10705 10697 10689 10681 10673 10663 10655 10644 10632 10619 10607 10596 10587 10574 10565 10559 10554 10549 10543 10534 10526 10517 10507 10495 10484
10800 10797 10795 10792 10789 10786 10784 10781 10777 10773 10768 10764 10759 10756 10751 10745 10738 10731 10726 10719 10713 10709 10701 10693 10687 10679 10670 10661 10652 10642 10630 10618 10606 10595 10584 10574 10564 10558 10551 10545 10540 10534 10527 10518 10512 10502 10493
10795 10793 10791 10788 10785 10782 10779 10777 10774 10769 10766 10762 10756 10752 10748 10744 10738 10730 10721 10717 10711 10705 10698 10691 10682 10676 10668 10659 10649 10639 10629 10619 10608 10596 10585 10576 10566 10557 10552 10547 10541 10535 10529 10524 10518 10512 10504
10789 10787 10786 10783 10780 10777 10775 10772 10769 10765 10762 10757 10753 10748 10744 10738 10733 10728 10721 10713 10707 10700 10694 10686 10679 10671 10663 10655 10648 10639 10629 10619 10608 10598 10587 10578 10568 10559 10552 10547 10541 10537 10531 10526 10522 10517 10512
10782 10781 10779 10777 10775 10772 10769 10767 10763 10760 10756 10751 10747 10743 10738 10732 10727 10722 10717 10711 10702 10695 10688 10682 10676 10668 10660 10652 10645 10636 10627 10619 10609 10598 10586 10578 10569 10559 10552 10546 10540 10535 10531 10527 10522 10519 10516
10774 10773 10771 10769 10767 10765 10763 10760 10757 10753 10750 10746 10741 10735 10732 10727 10720 10715 10710 10705 10699 10690 10685 10677 10670 10664 10657 10648 10640 10632 10623 10615 10608 10599 10589 10576 10568 10559 10552 10547 10539 10532 10528 10524 10522 10520 10518
10764 10764 10763 10760 10759 10757 10755 10753 10750 10746 10742 10738 10734 10729 10725 10720 10713 10708 10701 10696 10691 10686 10676 10670 10664 10659 10651 10644 10634 10627 10619 10612 10603 10596 10588 10579 10570 10561 10552 10545 10537 10529 10526 10524 10521 10518 10517
10755 10754 10751 10751 10748 10746 10745 10743 10740 10737 10733 10729 10725 10719 10714 10711 10706 10699 10693 10688 10683 10678 10670 10663 10657 10651 10643 10637 10630 10621 10615 10607 10599 10593 10585 10578 10571 10561 10552 10546 10541 10532 10525 10520 10518 10514 10513
10744 10744 10742 10740 10738 10736 10734 10733 10729 10727 10723 10718 10715 10711 10705 10699 10694 10690 10685 10678 10674 10667 10661 10656 10649 10642 10636 10629 10622 10616 10609 10604 10595 10587 10580 10572 10564 10559 10553 10544 10537 10530 10524 10518 10513 10508 10505
10734 10733 10731 10729 10727 10727 10725 10722 10719 10715 10713 10708 10705 10701 10694 10689 10683 10680 10675 10669 10664 10659 10651 10645 10640 10633 10627 10621 10612 10607 10600 10594 10590 10582 10574 10568 10559 10549 10547 10539 10532 10526 10519 10515 10510 10506 10501
10722 10722 10720 10718 10716 10714 10713 10709 10707 10705 10703 10700 10695 10691 10686 10680 10672 10668 10664 10658 10652 10646 10641 10634 10630 10623 10616 10611 10603 10596 10589 10585 10577 10572 10566 10561 10555 10544 10536 10532 10525 10518 10514 10508 10501 10496 10493
10710 10708 10708 10706 10704 10702 10700 10697 10695 10694 10691 10687 10683 10681 10676 10670 10662 10657 10651 10646 10640 10635 10630 10625 10620 10613 10605 10599 10593 10585 10578 10573 10566 10559 10553 10548 10544 10538 10526 10522 10515 10508 10502 10497 10490 10485 10481
10696 10695 10694 10693 10692 10690 10688 10685 10681 10678 10676 10674 10670 10668 10665 10660 10650 10644 10642 10633 10627 10623 10617 10613 10608 10602 10594 10588 10581 10575 10568 10562 10554 10547 10540 10534 10528 10522 10516 10510 10506 10497 10490 10484 10479 10472 10466
10679 10680 10680 10679 10679 10676 10674 10672 10668 10665 10663 10659 10656 10652 10650 10648 10638 10631 10628 10621 10615 10610 10602 10596 10593 10587 10581 10575 10569 10561 10553 10547 10540 10533 10524 10517 10511 10506 10499 10496 10490 10482 10474 10467 10462 10458 10449
10664 10664 10665 10664 10663 10661 10658 10656 10653 10651 10647 10644 10641 10638 10636 10634 10626 10618 10613 10609 10604 10597 10590 10582 10578 10573 10567 10561 10554 10549 10539 10530 10524 10515 10505 10497 10491 10484 10478 10474 10470 10464 10457 10450 10446 10441 10431
10646 10647 10648 10648 10647 10645 10643 10642 10639 10636 10631 10628 10624 10621 10617 10615 10611 10606 10600 10594 10590 10584 10579 10571 10564 10557 10550 10543 10538 10533 10526 10515 10507 10499 10491 10481 10474 10465 10455 10450 10447 10440 10434 10426 10419 10413 10408
10628 10629 10630 10630 10630 10629 10627 10626 10624 10621 10618 10612 10606 10603 10601 10597 10593 10590 10586 10580 10572 10567 10562 10556 10549 10541 10534 10526 10520 10515 10509 10501 10492 10484 10474 10466 10456 10448 10441 10432 10427 10419 10410 10401 10394 10389 10381
10607 10608 10609 10610 10609 10608 10607 10607 10605 10603 10600 10596 10593 10587 10583 10578 10573 10571 10568 10564 10559 10551 10544 10538 10531 10523 10515 10508 10502 10497 10490 10484 10476 10469 10457 10447 10438 10429 10420 10412 10401 10394 10384 10375 10367 10359 10350